BAW247 EGLL-SBGR

Flight info

Callsign BAW247
Flight time N/A
Altitude 34000
Route GASGU2J GASGU N514 ADKIK DCT JOZMA DCT GAPLI/M085F340 DCT EVBAK DCT TAMEL DCT GONAN DCT 40N017W 35N020W/M085F360 DCT RIPOD/N0505F290 DCT GOBEG/M085F360 DCT BAMUX/N0495F360 DCT TARIM DCT PINRU/N0493F380 UN741 ERUGU UZ61 EDMUP/N0484F400 UZ61 REDAD UZ21 VUNOX SANPA1A
Aircraft A35K/H-SBDE1E2E3GHIJ1J3J4J5J6M1M2P2RWXYZ/LB1D1

Departure

Time 2026-05-04 21:39
Airport London Heathrow Airport (EGLL)

Arrival

Time N/A
Airport São Paulo/Guarulhos–Governor André Franco Montoro International Airport (SBGR)
Time Latitude Longitude Altitude Speed Heading
2026-05-04 20:57 51.47452 -0.46307 92 ft 0 kts 199°
2026-05-04 21:26 51.47456 -0.46304 95 ft 3 kts 199°
2026-05-04 21:26 51.47473 -0.46296 95 ft 2 kts 199°
2026-05-04 21:27 51.47489 -0.46287 94 ft 2 kts 199°
2026-05-04 21:27 51.47506 -0.46276 95 ft 3 kts 211°
2026-05-04 21:27 51.47520 -0.46259 93 ft 3 kts 227°
2026-05-04 21:27 51.47522 -0.46257 94 ft 0 kts 230°
2026-05-04 21:28 51.47518 -0.46263 93 ft 1 kts 229°
2026-05-04 21:28 51.47512 -0.46274 93 ft 2 kts 229°
2026-05-04 21:28 51.47511 -0.46277 94 ft 0 kts 228°
2026-05-04 21:29 51.47510 -0.46279 94 ft 1 kts 232°
2026-05-04 21:29 51.47508 -0.46376 95 ft 14 kts 282°
2026-05-04 21:29 51.47512 -0.46419 96 ft 0 kts 275°
2026-05-04 21:30 51.47512 -0.46421 96 ft 0 kts 275°
2026-05-04 21:30 51.47514 -0.46457 95 ft 6 kts 275°
2026-05-04 21:31 51.47512 -0.46669 95 ft 16 kts 259°
2026-05-04 21:31 51.47497 -0.46784 95 ft 5 kts 263°
2026-05-04 21:31 51.47494 -0.46877 96 ft 15 kts 268°
2026-05-04 21:32 51.47495 -0.47059 95 ft 16 kts 273°
2026-05-04 21:32 51.47490 -0.47240 94 ft 16 kts 265°
2026-05-04 21:32 51.47490 -0.47425 92 ft 17 kts 270°
2026-05-04 21:32 51.47490 -0.47609 94 ft 17 kts 269°
2026-05-04 21:33 51.47488 -0.47801 95 ft 17 kts 269°
2026-05-04 21:33 51.47488 -0.47994 95 ft 17 kts 273°
2026-05-04 21:33 51.47488 -0.48186 95 ft 17 kts 270°
2026-05-04 21:33 51.47463 -0.48347 96 ft 9 kts 214°
2026-05-04 21:34 51.47333 -0.48365 94 ft 35 kts 179°
2026-05-04 21:34 51.47140 -0.48357 95 ft 10 kts 178°
2026-05-04 21:34 51.47137 -0.48357 95 ft 0 kts 178°
2026-05-04 21:34 51.47101 -0.48358 95 ft 14 kts 180°
2026-05-04 21:35 51.47002 -0.48358 95 ft 15 kts 180°
2026-05-04 21:35 51.46897 -0.48358 95 ft 15 kts 180°
2026-05-04 21:35 51.46864 -0.48358 95 ft 0 kts 180°
2026-05-04 21:35 51.46863 -0.48358 95 ft 1 kts 180°
2026-05-04 21:36 51.46835 -0.48358 95 ft 9 kts 180°
2026-05-04 21:36 51.46752 -0.48398 95 ft 11 kts 232°
2026-05-04 21:36 51.46743 -0.48501 93 ft 10 kts 268°
2026-05-04 21:36 51.46740 -0.48613 93 ft 10 kts 268°
2026-05-04 21:37 51.46728 -0.48707 96 ft 4 kts 229°
2026-05-04 21:37 51.46701 -0.48735 97 ft 6 kts 203°
2026-05-04 21:37 51.46659 -0.48753 93 ft 7 kts 193°
2026-05-04 21:37 51.46606 -0.48772 95 ft 9 kts 193°
2026-05-04 21:38 51.46527 -0.48781 97 ft 14 kts 163°
2026-05-04 21:38 51.46479 -0.48660 96 ft 15 kts 98°
2026-05-04 21:38 51.46477 -0.48617 97 ft 0 kts 93°
2026-05-04 21:38 51.46476 -0.48598 97 ft 15 kts 93°
2026-05-04 21:39 51.46477 -0.48059 96 ft 83 kts 90°
2026-05-04 21:39 51.46482 -0.46787 97 ft 142 kts 90°
2026-05-04 21:39 51.46489 -0.44944 131 ft 188 kts 90°
2026-05-04 21:39 51.46429 -0.42856 892 ft 182 kts 101°
2026-05-04 21:40 51.45959 -0.40975 1522 ft 192 kts 118°
2026-05-04 21:40 51.45152 -0.39088 1869 ft 215 kts 132°
2026-05-04 21:40 51.43939 -0.37587 2129 ft 233 kts 154°
2026-05-04 21:40 51.42318 -0.36886 2399 ft 250 kts 178°
2026-05-04 21:41 51.40590 -0.37278 2973 ft 253 kts 197°
2026-05-04 21:41 51.39073 -0.38053 3525 ft 256 kts 199°
2026-05-04 21:41 51.37353 -0.38960 4117 ft 260 kts 198°
2026-05-04 21:41 51.35650 -0.39835 4700 ft 263 kts 198°
2026-05-04 21:42 51.33886 -0.40747 5305 ft 266 kts 200°
2026-05-04 21:42 51.32244 -0.42153 5780 ft 269 kts 218°
2026-05-04 21:42 51.30883 -0.44179 5932 ft 270 kts 232°
2026-05-04 21:42 51.30018 -0.46804 5966 ft 269 kts 252°
2026-05-04 21:43 51.29493 -0.49692 5944 ft 270 kts 255°
2026-05-04 21:43 51.28978 -0.52599 5943 ft 271 kts 254°
2026-05-04 21:43 51.28452 -0.55440 5947 ft 271 kts 253°
2026-05-04 21:43 51.27908 -0.58353 5944 ft 271 kts 253°
2026-05-04 21:44 51.27371 -0.61204 5952 ft 271 kts 253°
2026-05-04 21:44 51.26816 -0.64109 5942 ft 271 kts 253°
2026-05-04 21:44 51.26268 -0.66970 5944 ft 271 kts 253°
2026-05-04 21:44 51.25713 -0.69863 5949 ft 271 kts 253°
2026-05-04 21:45 51.25162 -0.72733 5949 ft 271 kts 253°
2026-05-04 21:45 51.24612 -0.75596 5945 ft 271 kts 253°
2026-05-04 21:45 51.24058 -0.78471 5949 ft 271 kts 253°
2026-05-04 21:45 51.23501 -0.81361 5945 ft 271 kts 253°
2026-05-04 21:46 51.22952 -0.84203 5947 ft 271 kts 253°
2026-05-04 21:46 51.22394 -0.87091 5944 ft 271 kts 253°
2026-05-04 21:46 51.22025 -0.88994 5943 ft 271 kts 253°
2026-05-04 21:46 51.21283 -0.92822 5945 ft 271 kts 253°
2026-05-04 21:47 51.20899 -0.94732 5947 ft 271 kts 251°
2026-05-04 21:47 51.20071 -0.97428 5992 ft 271 kts 238°
2026-05-04 21:47 51.18995 -0.99928 6249 ft 272 kts 233°
2026-05-04 21:47 51.17831 -1.02282 6726 ft 275 kts 231°
2026-05-04 21:48 51.16615 -1.04634 7449 ft 275 kts 231°
2026-05-04 21:48 51.15384 -1.07014 8141 ft 277 kts 231°
2026-05-04 21:48 51.14169 -1.09402 8799 ft 280 kts 231°
2026-05-04 21:48 51.12958 -1.11826 9452 ft 282 kts 232°
2026-05-04 21:49 51.11732 -1.14311 10107 ft 285 kts 232°
2026-05-04 21:49 51.10475 -1.16879 10490 ft 300 kts 232°
2026-05-04 21:49 51.09171 -1.19548 10778 ft 316 kts 232°
2026-05-04 21:49 51.07798 -1.22360 11084 ft 332 kts 232°
2026-05-04 21:50 51.06346 -1.25343 11387 ft 347 kts 232°
2026-05-04 21:50 51.04828 -1.28440 11688 ft 361 kts 232°
2026-05-04 21:50 51.03254 -1.31638 12009 ft 374 kts 232°
2026-05-04 21:50 51.01651 -1.34913 12495 ft 380 kts 233°
2026-05-04 21:51 51.00289 -1.38523 13030 ft 384 kts 246°
2026-05-04 21:51 50.99326 -1.42478 13615 ft 388 kts 251°
2026-05-04 21:51 50.98513 -1.46620 14183 ft 392 kts 254°
2026-05-04 21:51 50.97792 -1.50805 14748 ft 395 kts 255°
2026-05-04 21:52 50.97109 -1.54995 15291 ft 398 kts 256°
2026-05-04 21:52 50.96414 -1.59291 15838 ft 401 kts 256°
2026-05-04 21:52 50.95707 -1.63599 16378 ft 405 kts 255°
2026-05-04 21:52 50.94987 -1.67896 16893 ft 408 kts 255°
2026-05-04 21:53 50.94241 -1.72279 17402 ft 411 kts 255°
2026-05-04 21:53 50.93488 -1.76645 17906 ft 414 kts 255°
2026-05-04 21:53 50.92723 -1.81058 18424 ft 417 kts 255°
2026-05-04 21:53 50.91954 -1.85470 18930 ft 420 kts 255°
2026-05-04 21:54 50.91169 -1.89967 19437 ft 424 kts 255°
2026-05-04 21:54 50.90379 -1.94480 19948 ft 427 kts 255°
2026-05-04 21:54 50.89585 -1.99009 20460 ft 430 kts 255°
2026-05-04 21:54 50.88779 -2.03618 20940 ft 434 kts 255°
2026-05-04 21:55 50.87976 -2.08200 21067 ft 436 kts 254°
2026-05-04 21:55 50.87149 -2.12878 21449 ft 439 kts 254°
2026-05-04 21:55 50.86330 -2.17498 21983 ft 441 kts 254°
2026-05-04 21:55 50.85497 -2.22179 22458 ft 443 kts 254°
2026-05-04 21:56 50.84656 -2.26899 22925 ft 447 kts 254°
2026-05-04 21:56 50.83811 -2.31635 23367 ft 450 kts 254°
2026-05-04 21:56 50.82949 -2.36452 23825 ft 453 kts 254°
2026-05-04 21:56 50.82092 -2.41235 24258 ft 456 kts 254°
2026-05-04 21:57 50.81218 -2.46098 24693 ft 459 kts 254°
2026-05-04 21:57 50.80336 -2.50991 25117 ft 462 kts 254°
2026-05-04 21:57 50.79585 -2.55913 25520 ft 465 kts 258°
2026-05-04 21:57 50.78949 -2.60914 25925 ft 468 kts 259°
2026-05-04 21:58 50.78337 -2.66016 26315 ft 471 kts 259°
2026-05-04 21:58 50.77750 -2.71063 26704 ft 473 kts 259°
2026-05-04 21:58 50.77157 -2.76215 27094 ft 476 kts 259°
2026-05-04 21:58 50.76564 -2.81357 27481 ft 478 kts 259°
2026-05-04 21:59 50.75967 -2.86494 27844 ft 481 kts 259°
2026-05-04 21:59 50.75349 -2.91765 28199 ft 483 kts 259°
2026-05-04 21:59 50.74737 -2.96943 28520 ft 486 kts 259°
2026-05-04 21:59 50.74118 -3.02148 28833 ft 489 kts 259°
2026-05-04 22:00 50.73483 -3.07459 29164 ft 491 kts 259°
2026-05-04 22:00 50.72841 -3.12803 29466 ft 493 kts 259°
2026-05-04 22:00 50.72201 -3.18108 29808 ft 494 kts 259°
2026-05-04 22:00 50.71566 -3.23355 30228 ft 493 kts 259°
2026-05-04 22:01 50.70914 -3.28725 30644 ft 492 kts 259°
2026-05-04 22:01 50.70270 -3.34000 31028 ft 491 kts 259°
2026-05-04 22:01 50.69619 -3.39315 31395 ft 490 kts 259°
2026-05-04 22:01 50.68975 -3.44553 31752 ft 489 kts 259°
2026-05-04 22:02 50.68323 -3.49836 32120 ft 488 kts 259°
2026-05-04 22:02 50.67676 -3.55060 32426 ft 488 kts 259°
2026-05-04 22:02 50.67022 -3.60319 32710 ft 487 kts 259°
2026-05-04 22:02 50.66372 -3.65519 33021 ft 487 kts 259°
2026-05-04 22:03 50.65712 -3.70784 33310 ft 487 kts 259°
2026-05-04 22:03 50.65057 -3.75990 33567 ft 487 kts 259°
2026-05-04 22:03 50.64395 -3.81234 33840 ft 486 kts 259°
2026-05-04 22:03 50.63726 -3.86505 33985 ft 488 kts 258°
2026-05-04 22:04 50.63067 -3.91687 34001 ft 488 kts 258°
2026-05-04 22:04 50.61703 -4.02180 34001 ft 488 kts 258°
2026-05-04 22:05 50.60266 -4.12598 34001 ft 488 kts 257°
2026-05-04 22:05 50.58813 -4.23014 34001 ft 487 kts 258°
2026-05-04 22:06 50.57683 -4.31146 34736 ft 489 kts 257°
2026-05-04 22:06 50.56958 -4.36358 34517 ft 491 kts 257°
2026-05-04 22:06 50.56231 -4.41568 34287 ft 492 kts 257°
2026-05-04 22:06 50.55490 -4.46859 34074 ft 493 kts 257°
2026-05-04 22:07 50.54757 -4.52070 34036 ft 493 kts 257°
2026-05-04 22:07 50.53270 -4.62602 34042 ft 493 kts 257°
2026-05-04 22:08 50.51773 -4.73120 34045 ft 494 kts 257°
2026-05-04 22:08 50.50262 -4.83667 34047 ft 494 kts 257°
2026-05-04 22:09 50.48743 -4.94202 34050 ft 494 kts 257°
2026-05-04 22:09 50.47222 -5.04676 34048 ft 494 kts 257°
2026-05-04 22:10 50.45681 -5.15212 34048 ft 494 kts 256°
2026-05-04 22:10 50.44138 -5.25698 34044 ft 494 kts 256°
2026-05-04 22:11 50.42581 -5.36205 34046 ft 494 kts 256°